Flag for Switzerland Weather past 2 weeks in Köniz, Bern, Switzerland

Now
90 °F

Sunny.


Feels Like: 90 °F
Forecast: 62 / 84 °F
Wind: 3 mph from North

Location: Bern / Belp

Current Time: Aug 29, 2015 at 7:09:05 PM

Latest Report: Aug 29, 2015 at 6:20 PM


Visibility: 10 mi

Pressure: 30.09 "Hg (28.20 "Hg at 579m altitude)

Humidity: 41%

Dew point: 63 °F

Location of KönizLocation

Historic Weather in Köniz — Graph

°F

Köniz temperature yesterday

Maximum temperature yesterday: 86 °F (at 3:50 PM)
Minimum temperature yesterday: 57 °F (at 6:50 AM)
Average temperature yesterday: 71 °F

Past Weeks' High & Low Weather Summary

 TemperatureHumidityPressure
High88 °F (Aug 29, 3:50 PM)100% (Aug 14, 5:20 PM)30.27 "Hg (Aug 14, 5:20 PM)
Low48 °F (Aug 20, 3:20 AM)38% (Aug 29, 5:20 PM)29.74 "Hg (Aug 24, 4:20 AM)
Average63 °F83%30.03 "Hg
* Reported Aug 14 5:20 PM — Aug 29 5:50 PM, Köniz, Weather by CustomWeather, © 2015

Note: Actual official high and low records may vary slightly from our data, if they occured in-between our weather recording intervals... More about our weather records

Advertising

Köniz weather history for previous 24 hours

 ConditionsComfort  
Time TempWeatherWind HumidityBarometerVisibility
5:50 PM
Sat, Aug 29
88 °FSunny.1 mph40%30.12 "Hg10 mi
5:20 PM88 °FSunny.1 mph38%30.12 "Hg10 mi
4:50 PM88 °FSunny.6 mph40%30.12 "Hg10 mi
4:20 PM88 °FSunny.5 mph46%30.12 "Hg10 mi
3:50 PM88 °FSunny.3 mph49%30.15 "Hg10 mi
3:20 PM86 °FPassing clouds.6 mph46%30.15 "HgN/A
2:50 PM86 °FPassing clouds.7 mph49%30.15 "HgN/A
2:20 PM84 °FPassing clouds.6 mph48%30.18 "HgN/A
1:50 PM82 °FPassing clouds.3 mph51%30.18 "HgN/A
1:20 PM82 °FSunny.3 mph51%30.18 "Hg10 mi
12:50 PM81 °FSunny.3 mph54%30.21 "Hg10 mi
11:50 AM77 °FSunny.2 mph61%30.21 "Hg10 mi
11:20 AM75 °FSunny.1 mph65%30.21 "Hg10 mi
10:50 AM75 °FSunny.1 mph65%30.21 "Hg10 mi
10:20 AM72 °FSunny.2 mph69%30.21 "Hg10 mi
9:50 AM72 °FSunny.1 mph73%30.21 "Hg10 mi
9:20 AM70 °FSunny.3 mph78%30.21 "Hg10 mi
8:50 AM66 °FSunny.1 mph83%30.21 "Hg10 mi
7:50 AM59 °FSunny.1 mph100%30.21 "Hg10 mi
7:20 AM57 °FClear.2 mph100%30.21 "Hg10 mi
6:50 AM55 °FClear.2 mph100%30.21 "Hg10 mi
6:20 AM55 °FClear.1 mph100%30.18 "Hg10 mi
5:50 AM57 °FClear.1 mph100%30.18 "Hg10 mi
5:20 AM57 °FClear.1 mph100%30.18 "Hg10 mi
4:50 AM57 °FCool.2 mph100%30.18 "Hg5 mi
4:20 AM59 °FClear.1 mph100%30.18 "Hg10 mi
3:50 AM61 °FClear.1 mph94%30.18 "Hg10 mi
3:20 AM59 °FClear.2 mph100%30.18 "Hg10 mi
2:50 AM59 °FClear.1 mph100%30.18 "Hg10 mi
2:20 AM61 °FClear.1 mph94%30.18 "Hg10 mi
1:50 AM61 °FClear.1 mph100%30.18 "Hg10 mi
1:20 AM63 °FClear.6 mph94%30.18 "Hg10 mi
12:50 AM61 °FClear.3 mph100%30.18 "Hg10 mi
12:20 AM61 °FClear.2 mph100%30.18 "Hg10 mi
11:50 PM
Fri, Aug 28
63 °FClear.2 mph94%30.18 "Hg10 mi
11:20 PM63 °FClear.2 mph94%30.18 "Hg10 mi
10:50 PM64 °FClear.1 mph94%30.15 "Hg10 mi
10:20 PM64 °FClear.2 mph94%30.15 "Hg10 mi
9:50 PM66 °FClear.2 mph88%30.15 "Hg10 mi
9:20 PM66 °FClear.1 mph94%30.15 "Hg10 mi
8:50 PM68 °FSunny.1 mph88%30.12 "Hg10 mi
8:20 PM72 °FSunny.2 mph83%30.12 "Hg10 mi
7:50 PM77 °FSunny.2 mph65%30.09 "Hg10 mi
7:20 PM84 °FSunny.7 mph45%30.09 "Hg10 mi
Weather by CustomWeather, © 2015

See weather overviewHow to use our weather pages